ELECTRON KICK STAGE R/B, 59590

Orbit data source: Space-Track

ELECTRON KICK STAGE R/B, 59590 is space debris in SSO originally from a launch on Tue, 23 Apr 2024 UTC launched from the Rocket Lab Launch Complex (RLLC). Debris objects in space refer to the collection of defunct objects orbiting the Earth. Examples of debris include non-operational satellites, rocket bodies, and fragments generated from explosions, collisions, or faulty payload assembly.

Loading next visibility...
Identifier
59590, 2024-077D
Orbit
SSO
Last TLE update
13 hours ago
Origin
Manufacturer
Rocket Lab
Mission
Spacecraft
Bus & Motor
KICK STAGE, CURIE
Mass
~50 kg wet, ~50 kg dry
Launch date (UTC)
2024-04-23 (1 year ago)
Launch vehicle
Unknown
Launch site
Rocket Lab Launch Complex (RLLC)
Object type
Payload
Rocket body
Debris
Shape & HBR
Unknown
Radar Cross Section
Medium (>0.1 m² and <1 m²)

Expand to show TLE details & history

TLE from 13 hours ago
0 ELECTRON KICK STAGE R/B
1 59590U 24077D   25182.55709342  .00001753  00000-0  17958-3 0  9990
2 59590  97.3410 216.9577 0357089 280.5809  75.5362 14.54479415 62869
Epoch: 2025-07-01T13:22Z
TLE epoch observation values (Epoch: 2025-07-01T13:22:12.871Z)
Latitude
0.00001°
Longitude
96.55323°
Altitude
659.408 km
Speed
7.557 km/s
True Right ascension
14h 27m 49s
True Declination
0° 00' 00"
Sunlit
Object was in daylight at epoch
Visualization orbit readout
Latitude
26.6041°
Longitude
93.36229°
Altitude
784.264 km
Speed
7.427 km/s
Apparent Right ascension
13h 48m 47s
Apparent Declination
-30° 02' 50"
Sunlit
Object is in daylight
Visualization observer readout
Local Sidereal Time
14:23:12
Azimuth
187.901° SSW
Elevation
19.581°
Doppler factor
1
Orbital elements
Apogee altitude
961.143 km
Perigee altitude
455.06 km
Semi-major axis
7,086.238 km
Eccentricity
0.03571
Inclination
97.341°
RAAN
216.9577°
Arg. of periapsis
280.5809°
True anomaly
Unknown
Mean anomaly
75.5362°
Eccentric anomaly
Unknown
Mean motion
3.63848 °/min
Orbital period
98.94 mins
BSTAR
0.00017958
Loading maneuver chart data...
Loading SW <> Apogee altitude chart data...
Loading historical data...
Loading historical data...
Loading historical data...
Loading historical data...
Loading historical data...
Loading historical data...
Loading historical data...
Other satellites on launch #77 in the year 2024 (2024-04-23 UTC)

ELECTRON KICK STAGE R/B Visibility forecast

Observer location: undefined°, undefined°

Span
Click to sort rows by Start time (UTC) header in descending order
Start Az.
Max El. time (UTC)
Max El. Az.
Max El.
End time (UTC)
End Az.
9 mins2025-07-02 02:42:05.665Z187.852° SSW2025-07-02 02:46:05.665Z279.852° WNW39.701°2025-07-02 02:51:05.665Z339.839° N
9 mins2025-07-02 14:44:05.665Z23.869° NE2025-07-02 14:49:05.665Z114.758° SE39.187°2025-07-02 14:53:05.665Z172.995° S
7 mins2025-07-02 16:23:05.665Z333.926° NNW2025-07-02 16:26:05.665Z296.713° NW21.002°2025-07-02 16:30:05.665Z249.202° W
8 mins2025-07-03 01:50:05.665Z135.743° SSE2025-07-03 01:53:05.665Z79.087° E36.85°2025-07-03 01:58:05.665Z1.371° NNE
|